This is the latest recevied weather packets stored in our database for station/object DD3UTS-13. If no packets are shown the sender has not sent any weather packets the latest 10 day(s).
| Time | Temp. | Humidity | Pressure | Rain* | Wind** | Luminosity | Snow |
|---|---|---|---|---|---|---|---|
| 1777632332 | 20° C | 38% | 1028.1 hPa | 0 mm | - | 541 W/m² | - |
| 1777632031 | 20° C | 39% | 1028.1 hPa | 0 mm | - | 540 W/m² | - |
| 1777631732 | 19.44° C | 39% | 1028 hPa | 0 mm | - | 541 W/m² | - |
| 1777631431 | 19.44° C | 37% | 1028.1 hPa | 0 mm | - | 541 W/m² | - |
| 1777631132 | 19.44° C | 39% | 1028.1 hPa | 0 mm | - | 537 W/m² | - |
| 1777630832 | 20° C | 39% | 1028.3 hPa | 0 mm | - | 535 W/m² | - |
| 1777630532 | 19.44° C | 40% | 1028.2 hPa | 0 mm | - | 538 W/m² | - |
| 1777630233 | 19.44° C | 40% | 1027.9 hPa | 0 mm | - | 540 W/m² | - |
| 1777629932 | 18.89° C | 40% | 1027.9 hPa | 0 mm | - | 542 W/m² | - |
| 1777629632 | 18.89° C | 39% | 1027.9 hPa | 0 mm | - | 543 W/m² | - |
| 1777629331 | 18.89° C | 40% | 1028 hPa | 0 mm | - | 543 W/m² | - |
| 1777629032 | 18.89° C | 40% | 1028 hPa | 0 mm | - | 541 W/m² | - |
| 1777628732 | 18.89° C | 41% | 1028.1 hPa | 0 mm | - | 538 W/m² | - |
| 1777628431 | 18.89° C | 40% | 1028.1 hPa | 0 mm | - | 535 W/m² | - |
| 1777628132 | 18.89° C | 40% | 1028.1 hPa | 0 mm | - | 528 W/m² | - |
| 1777627831 | 18.33° C | 40% | 1028.1 hPa | 0 mm | - | 477 W/m² | - |
| 1777627532 | 18.33° C | 41% | 1028.2 hPa | 0 mm | - | 474 W/m² | - |
| 1777627232 | 18.33° C | 41% | 1028.2 hPa | 0 mm | - | 489 W/m² | - |
| 1777626932 | 17.78° C | 42% | 1028.1 hPa | 0 mm | - | 511 W/m² | - |
| 1777626631 | 17.78° C | 43% | 1028.1 hPa | 0 mm | - | 511 W/m² | - |
| 1777626331 | 17.78° C | 42% | 1028.1 hPa | 0 mm | - | 499 W/m² | - |
| 1777626031 | 17.22° C | 41% | 1028.1 hPa | 0 mm | - | 496 W/m² | - |
| 1777625731 | 17.78° C | 42% | 1028.2 hPa | 0 mm | - | 518 W/m² | - |
| 1777625432 | 17.78° C | 42% | 1028.2 hPa | 0 mm | - | 517 W/m² | - |
| 1777625131 | 17.22° C | 42% | 1028.2 hPa | 0 mm | - | 515 W/m² | - |
* Rain latest 24 hours (hover to see other rain measurements)
** Current wind speed in m/s (hover to see current wind gust speed)